Retour au catalogue

XI'AN HANGTOU 104

ActifScienceSSO
NORAD 57585·PAYLOAD·🇨🇳 China
Ce nom de satellite n'a pas encore été confirmé par des sources officielles.

Lancé Aug 10, 2023 depuis Jiuquan Satellite Launch Center

Loading…

Prochains Passages (prochaines 24 heures)

TLE

FraisSource: Space-Track

Époque: Sep 14, 2026, 13:03 UTC

1 57585U 23117F   26257.54426791  .00018699  00000-0  35334-3 0  9998
2 57585  97.4157 345.7484 0004626 250.0947 109.9805 15.48468464172669

Suivez XI'AN HANGTOU 104 en temps réel avec AllMySat

Download on the App Store